Orange City, IA

9:55 AM CST on November 21, 2017 (GMT -0600)
Orange City Municipal

Weather History for KORC - November, 2011

Change the Weather History Date:

Thursday, November 17, 2011

  Actual Average Record
Temperature  
Mean Temperature 28 °F -  
Max Temperature 44 °F 42 °F 68 °F (1952)
Min Temperature 12 °F 25 °F 5 °F (2014)
Degree Days  
Heating Degree Days 37    
Moisture  
Dew Point 7 °F    
Average Humidity 46    
Maximum Humidity 67    
Minimum Humidity 23    
Precipitation  
Precipitation 0.00 in - - ()
Sea Level Pressure  
Sea Level Pressure 30.09 in    
Wind  
Wind Speed 4 mph (South)    
Max Wind Speed 16 mph    
Max Gust Speed 18 mph    
Visibility 10 miles    
Events      
Averages and records for this station are not official NWS values.
T = Trace of Precipitation, MM = Missing Value Source: NWS Daily Summary

Daily Weather History Graph

Daily Weather History Graph

Search for Another Location

Airport or City:

Trip Planner

Search our weather history database for the weather conditions in past years. The results will help you decide how hot, cold, wet, or windy it might be!

Date:

Astronomy

Nov. 17, 2011 Rise Set
Actual Time 7:18 AM CST 4:59 PM CST
Civil Twilight 6:48 AM CST 5:29 PM CST
Nautical Twilight 6:13 AM CST 6:04 PM CST
Astronomical Twilight 5:40 AM CST 6:37 PM CST
Moon 11:24 PM CST (11/17) 12:25 PM CST (11/17)
Length of Visible Light 10h 41m
Length of Day
9h 40m
Waning Gibbous, 59% of the Moon is Illuminated
Nov 17
Waning Gibbous
Nov 18
Last Quarter
Nov 25
New
Dec 2
First Quarter
Dec 10
Full

Hourly Weather History & Observations

Time (CST) Temp. Windchill Dew Point Humidity Pressure Visibility Wind Dir Wind Speed Gust Speed Precip Events Conditions
12:15 AM 17.6 °F - 5.0 °F 58% 30.20 in 10.0 mi Calm Calm - N/A   Clear
12:35 AM 17.6 °F 12.3 °F 5.0 °F 58% 30.20 in 10.0 mi WNW 3.5 mph - N/A   Clear
12:55 AM 17.6 °F 10.7 °F 5.0 °F 58% 30.20 in 10.0 mi WNW 4.6 mph - N/A   Clear
1:15 AM 17.6 °F 10.7 °F 5.0 °F 58% 30.20 in 10.0 mi West 4.6 mph - N/A   Scattered Clouds
1:35 AM 19.4 °F 14.3 °F 5.0 °F 54% 30.19 in 10.0 mi West 3.5 mph - N/A   Scattered Clouds
2:15 AM 19.4 °F - 5.0 °F 54% 30.19 in 10.0 mi Calm Calm - N/A   Clear
2:35 AM 17.6 °F - 5.0 °F 58% 30.19 in 10.0 mi Calm Calm - N/A   Clear
2:55 AM 17.6 °F - 5.0 °F 58% 30.19 in 10.0 mi Calm Calm - N/A   Clear
3:15 AM 17.6 °F - 5.0 °F 58% 30.19 in 10.0 mi Calm Calm - N/A   Clear
3:35 AM 15.8 °F - 3.2 °F 58% 30.19 in 10.0 mi Calm Calm - N/A   Clear
3:55 AM 15.8 °F - 5.0 °F 62% 30.19 in 10.0 mi Calm Calm - N/A   Clear
4:15 AM 15.8 °F - 5.0 °F 62% 30.18 in 10.0 mi Calm Calm - N/A   Clear
4:35 AM 14.0 °F - 3.2 °F 62% 30.18 in 10.0 mi Calm Calm - N/A   Clear
4:55 AM 15.8 °F - 5.0 °F 62% 30.18 in 10.0 mi Calm Calm - N/A   Clear
5:15 AM 17.6 °F - 5.0 °F 58% 30.18 in 10.0 mi Calm Calm - N/A   Clear
5:35 AM 15.8 °F 10.2 °F 5.0 °F 62% 30.17 in 10.0 mi SSW 3.5 mph - N/A   Clear
5:55 AM 14.0 °F 8.2 °F 3.2 °F 62% 30.17 in 10.0 mi South 3.5 mph - N/A   Clear
6:15 AM 12.2 °F - 3.2 °F 67% 30.17 in 10.0 mi Calm Calm - N/A   Clear
6:35 AM 12.2 °F - 3.2 °F 67% 30.17 in 10.0 mi Calm Calm - N/A   Clear
6:55 AM 14.0 °F - 5.0 °F 67% 30.16 in 10.0 mi Calm Calm - N/A   Clear
7:15 AM 14.0 °F - 5.0 °F 67% 30.16 in 10.0 mi Calm Calm - N/A   Clear
7:35 AM 12.2 °F - 3.2 °F 67% 30.16 in 10.0 mi Calm Calm - N/A   Clear
7:55 AM 15.8 °F - 3.2 °F 58% 30.16 in 10.0 mi Calm Calm - N/A   Clear
8:15 AM 15.8 °F - 5.0 °F 62% 30.17 in 10.0 mi Calm Calm - N/A   Clear
8:35 AM 17.6 °F - 6.8 °F 63% 30.17 in 10.0 mi Calm Calm - N/A   Clear
8:55 AM 19.4 °F - 6.8 °F 58% 30.17 in 10.0 mi Calm Calm - N/A   Clear
9:15 AM 21.2 °F 16.4 °F 8.6 °F 58% 30.17 in 10.0 mi SSW 3.5 mph - N/A   Clear
9:35 AM 24.8 °F - 8.6 °F 50% 30.16 in 10.0 mi Calm Calm - N/A   Clear
9:55 AM 26.6 °F 21.2 °F 8.6 °F 47% 30.15 in 10.0 mi SSW 4.6 mph - N/A   Clear
10:15 AM 28.4 °F 23.3 °F 8.6 °F 43% 30.15 in 10.0 mi SSW 4.6 mph - N/A   Clear
10:35 AM 30.2 °F - 8.6 °F 40% 30.14 in 10.0 mi Calm Calm - N/A   Clear
10:55 AM 32.0 °F 28.7 °F 6.8 °F 35% 30.14 in 10.0 mi SSE 3.5 mph - N/A   Clear
11:15 AM 33.8 °F 28.6 °F 6.8 °F 32% 30.13 in 10.0 mi South 5.8 mph - N/A   Clear
11:35 AM 35.6 °F 29.9 °F 6.8 °F 30% 30.12 in 10.0 mi South 6.9 mph - N/A   Clear
11:55 AM 37.4 °F 32.1 °F 6.8 °F 28% 30.10 in 10.0 mi SSE 6.9 mph - N/A   Clear
12:15 PM 37.4 °F 32.1 °F 6.8 °F 28% 30.08 in 10.0 mi SSE 6.9 mph - N/A   Clear
12:35 PM 39.2 °F 35.0 °F 8.6 °F 28% 30.07 in 10.0 mi SSE 5.8 mph - N/A   Clear
12:55 PM 39.2 °F 33.6 °F 6.8 °F 26% 30.05 in 10.0 mi South 8.1 mph - N/A   Clear
1:15 PM 39.2 °F 34.2 °F 6.8 °F 26% 30.04 in 10.0 mi SSE 6.9 mph - N/A   Clear
1:35 PM 42.8 °F 36.2 °F 6.8 °F 23% 30.02 in 10.0 mi South 12.7 mph 17.3 mph N/A   Clear
1:55 PM 41.0 °F 34.7 °F 6.8 °F 24% 30.01 in 10.0 mi South 10.4 mph - N/A   Clear
2:15 PM 42.8 °F 36.2 °F 8.6 °F 25% 29.99 in 10.0 mi South 12.7 mph - N/A   Clear
2:35 PM 42.8 °F 35.8 °F 8.6 °F 25% 29.98 in 10.0 mi South 13.8 mph 17.3 mph N/A   Clear
2:55 PM 42.8 °F 35.1 °F 10.4 °F 27% 29.96 in 10.0 mi South 16.1 mph - N/A   Clear
3:15 PM 44.6 °F 38.4 °F 12.2 °F 27% 29.95 in 10.0 mi South 12.7 mph 18.4 mph N/A   Clear
3:35 PM 44.6 °F 37.4 °F 12.2 °F 27% 29.94 in 10.0 mi South 16.1 mph - N/A   Clear
3:55 PM 44.6 °F 38.1 °F 12.2 °F 27% 29.93 in 10.0 mi South 13.8 mph 18.4 mph N/A   Clear
4:15 PM 44.6 °F 39.7 °F 12.2 °F 27% 29.91 in 10.0 mi South 9.2 mph - N/A   Clear
4:35 PM 44.6 °F 37.8 °F 12.2 °F 27% 29.90 in 10.0 mi South 15.0 mph - N/A   Clear
4:55 PM 42.8 °F 35.8 °F 12.2 °F 29% 29.89 in 10.0 mi South 13.8 mph - N/A   Clear
5:15 PM 42.8 °F 35.1 °F 12.2 °F 29% 29.88 in 10.0 mi South 16.1 mph - N/A   Clear
5:35 PM 41.0 °F 33.9 °F 12.2 °F 31% 29.87 in 10.0 mi SSE 12.7 mph - N/A   Clear
5:55 PM 39.2 °F 31.6 °F 12.2 °F 33% 29.85 in 10.0 mi South 12.7 mph - N/A   Clear
6:15 PM 39.2 °F 31.6 °F 12.2 °F 33% 29.85 in 10.0 mi South 12.7 mph 17.3 mph N/A   Clear
6:35 PM 39.2 °F 32.5 °F 14.0 °F 36% 29.85 in 10.0 mi South 10.4 mph - N/A   Clear
6:55 PM 39.2 °F 32.0 °F 14.0 °F 36% 29.85 in 10.0 mi South 11.5 mph - N/A   Clear
7:35 PM 39.2 °F 31.6 °F 15.8 °F 39% 29.82 in 10.0 mi South 12.7 mph 18.4 mph N/A   Clear
7:55 PM 39.2 °F 31.6 °F 17.6 °F 42% 29.82 in 10.0 mi South 12.7 mph 19.6 mph N/A   Clear
8:15 PM 39.2 °F 30.8 °F 17.6 °F 42% 29.81 in 10.0 mi South 15.0 mph 20.7 mph N/A   Clear
8:35 PM 39.2 °F 30.2 °F 19.4 °F 45% 29.80 in 10.0 mi South 17.3 mph 20.7 mph N/A   Clear
8:55 PM 39.2 °F 31.2 °F 21.2 °F 49% 29.79 in 10.0 mi South 13.8 mph - N/A   Clear
9:35 PM 39.2 °F 30.8 °F 21.2 °F 49% 29.78 in 10.0 mi South 15.0 mph - N/A   Clear
9:55 PM 39.2 °F 29.6 °F 21.2 °F 49% 29.77 in 10.0 mi SSW 19.6 mph 25.3 mph N/A   Clear
10:35 PM 39.2 °F 29.3 °F 21.2 °F 49% 29.75 in 10.0 mi SSW 20.7 mph - N/A   Clear
10:55 PM 37.4 °F 27.5 °F 21.2 °F 52% 29.74 in 10.0 mi South 18.4 mph 26.5 mph N/A   Clear
11:15 PM 37.4 °F 27.2 °F 21.2 °F 52% 29.73 in 10.0 mi South 19.6 mph 24.2 mph N/A   Clear
11:35 PM 37.4 °F 27.2 °F 21.2 °F 52% 29.71 in 10.0 mi South 19.6 mph 25.3 mph N/A   Clear
11:55 PM 37.4 °F 26.6 °F 23.0 °F 56% 29.70 in 10.0 mi South 21.9 mph 27.6 mph N/A   Clear